Time,TemperatureF,DewpointF,PressureIn,WindDirection,WindDirectionDegrees,WindSpeedMPH,WindSpeedGustMPH,Humidity,HourlyPrecipIn,Conditions,Clouds,dailyrainin,SoftwareType,DateUTC
2013-04-03 00:02:00,50.0,47.0,30.27,North,0,0.0,0.0,89,0.00,,,0.00,,2013-04-03 07:02:00,
2013-04-03 00:12:00,50.0,47.0,30.27,North,0,0.0,0.0,89,0.00,,,0.00,,2013-04-03 07:12:00,
2013-04-03 00:22:00,50.0,47.0,30.27,North,0,0.0,0.0,89,0.00,,,0.00,,2013-04-03 07:22:00,
2013-04-03 00:32:00,50.0,47.0,30.27,North,0,0.0,0.0,89,0.00,,,0.00,,2013-04-03 07:32:00,
2013-04-03 00:42:00,50.0,47.0,30.27,North,0,0.0,0.0,89,0.00,,,0.00,,2013-04-03 07:42:00,
2013-04-03 00:53:00,50.0,47.0,30.27,North,0,0.0,0.0,89,0.00,,,0.00,,2013-04-03 07:53:00,
2013-04-03 01:02:00,50.0,47.0,30.26,North,0,0.0,2.0,90,0.00,,,0.00,,2013-04-03 08:02:00,
2013-04-03 01:12:00,50.0,47.0,30.26,North,0,0.0,2.0,90,0.00,,,0.00,,2013-04-03 08:12:00,
2013-04-03 01:22:00,50.0,47.0,30.26,North,0,0.0,2.0,90,0.00,,,0.00,,2013-04-03 08:22:00,
2013-04-03 01:32:00,49.0,46.0,30.26,North,0,0.0,0.0,91,0.00,,,0.00,,2013-04-03 08:32:00,
2013-04-03 01:43:00,49.0,46.0,30.26,North,0,0.0,0.0,91,0.00,,,0.00,,2013-04-03 08:43:00,
2013-04-03 01:52:00,49.0,46.0,30.26,North,0,0.0,0.0,91,0.00,,,0.00,,2013-04-03 08:52:00,
2013-04-03 02:02:00,49.0,47.0,30.26,North,0,0.0,2.0,92,0.00,,,0.00,,2013-04-03 09:02:00,
2013-04-03 02:12:00,49.0,47.0,30.26,North,0,0.0,2.0,92,0.00,,,0.00,,2013-04-03 09:12:00,
2013-04-03 02:22:00,49.0,47.0,30.26,North,0,0.0,2.0,92,0.00,,,0.00,,2013-04-03 09:22:00,
2013-04-03 02:32:00,48.0,46.0,30.24,North,0,0.0,1.0,92,0.00,,,0.00,,2013-04-03 09:32:00,
2013-04-03 02:43:00,48.0,46.0,30.24,North,0,0.0,1.0,92,0.00,,,0.00,,2013-04-03 09:43:00,
2013-04-03 02:53:00,48.0,46.0,30.24,North,0,0.0,1.0,92,0.00,,,0.00,,2013-04-03 09:53:00,
2013-04-03 03:02:00,49.0,47.0,30.24,North,0,0.0,1.0,92,0.00,,,0.00,,2013-04-03 10:02:00,
2013-04-03 03:12:00,49.0,47.0,30.24,North,0,0.0,1.0,92,0.00,,,0.00,,2013-04-03 10:12:00,
2013-04-03 03:22:00,49.0,47.0,30.24,North,0,0.0,1.0,92,0.00,,,0.00,,2013-04-03 10:22:00,
2013-04-03 03:33:00,49.0,47.0,30.24,North,0,0.0,0.0,93,0.00,,,0.00,,2013-04-03 10:33:00,
2013-04-03 03:43:00,49.0,47.0,30.24,North,0,0.0,0.0,93,0.00,,,0.00,,2013-04-03 10:43:00,
2013-04-03 03:53:00,49.0,47.0,30.24,North,0,0.0,0.0,93,0.00,,,0.00,,2013-04-03 10:53:00,
2013-04-03 04:02:00,49.0,47.0,30.24,North,0,0.0,0.0,92,0.00,,,0.00,,2013-04-03 11:02:00,
2013-04-03 04:12:00,49.0,47.0,30.24,North,0,0.0,0.0,92,0.00,,,0.00,,2013-04-03 11:12:00,
2013-04-03 04:22:00,49.0,47.0,30.24,North,0,0.0,0.0,92,0.00,,,0.00,,2013-04-03 11:22:00,
2013-04-03 04:32:00,49.0,47.0,30.23,North,0,0.0,0.0,92,0.00,,,0.00,,2013-04-03 11:32:00,
2013-04-03 04:42:00,49.0,47.0,30.23,North,0,0.0,0.0,92,0.00,,,0.00,,2013-04-03 11:42:00,
2013-04-03 04:53:00,49.0,47.0,30.23,North,0,0.0,0.0,92,0.00,,,0.00,,2013-04-03 11:53:00,
2013-04-03 05:01:00,49.0,47.0,30.22,North,0,0.0,0.0,92,0.00,,,0.00,,2013-04-03 12:01:00,
2013-04-03 05:12:00,49.0,47.0,30.22,North,0,0.0,0.0,92,0.00,,,0.00,,2013-04-03 12:12:00,
2013-04-03 05:22:00,49.0,47.0,30.22,North,0,0.0,0.0,92,0.00,,,0.00,,2013-04-03 12:22:00,
2013-04-03 05:32:00,48.0,46.0,30.21,North,0,0.0,0.0,93,0.00,,,0.00,,2013-04-03 12:32:00,
2013-04-03 05:42:00,48.0,46.0,30.21,North,0,0.0,0.0,93,0.00,,,0.00,,2013-04-03 12:42:00,
2013-04-03 05:52:00,48.0,46.0,30.21,North,0,0.0,0.0,93,0.00,,,0.00,,2013-04-03 12:52:00,
2013-04-03 06:02:00,48.0,46.0,30.19,North,0,0.0,0.0,93,0.00,,,0.00,,2013-04-03 13:02:00,
2013-04-03 06:12:00,48.0,46.0,30.19,North,0,0.0,0.0,93,0.00,,,0.00,,2013-04-03 13:12:00,
2013-04-03 06:22:00,48.0,46.0,30.19,North,0,0.0,0.0,93,0.00,,,0.00,,2013-04-03 13:22:00,
2013-04-03 06:32:00,48.0,46.0,30.19,North,0,0.0,0.0,93,0.00,,,0.00,,2013-04-03 13:32:00,
2013-04-03 06:42:00,48.0,46.0,30.19,North,0,0.0,0.0,93,0.00,,,0.00,,2013-04-03 13:42:00,
2013-04-03 06:52:00,48.0,46.0,30.19,North,0,0.0,0.0,93,0.00,,,0.00,,2013-04-03 13:52:00,
2013-04-03 07:01:00,48.0,46.0,30.18,North,0,0.0,0.0,93,0.00,,,0.00,,2013-04-03 14:01:00,
2013-04-03 07:12:00,48.0,46.0,30.18,North,0,0.0,0.0,93,0.00,,,0.00,,2013-04-03 14:12:00,
2013-04-03 07:22:00,48.0,46.0,30.18,North,0,0.0,0.0,93,0.00,,,0.00,,2013-04-03 14:22:00,
2013-04-03 07:32:00,48.0,46.0,30.18,North,0,0.0,1.0,93,0.00,,,0.00,,2013-04-03 14:32:00,
2013-04-03 07:43:00,48.0,46.0,30.18,North,0,0.0,1.0,93,0.00,,,0.00,,2013-04-03 14:43:00,
2013-04-03 07:52:00,48.0,46.0,30.18,North,0,0.0,1.0,93,0.00,,,0.00,,2013-04-03 14:52:00,
2013-04-03 08:02:00,47.0,45.0,30.19,North,0,0.0,1.0,92,0.00,,,0.00,,2013-04-03 15:02:00,
2013-04-03 08:12:00,47.0,45.0,30.19,North,0,0.0,1.0,92,0.00,,,0.00,,2013-04-03 15:12:00,
2013-04-03 08:22:00,47.0,45.0,30.19,North,0,0.0,1.0,92,0.00,,,0.00,,2013-04-03 15:22:00,
2013-04-03 08:33:00,47.0,45.0,30.19,North,0,1.0,2.0,92,0.00,,,0.00,,2013-04-03 15:33:00,
2013-04-03 08:43:00,47.0,45.0,30.19,North,0,1.0,2.0,92,0.00,,,0.00,,2013-04-03 15:43:00,
2013-04-03 08:53:00,47.0,45.0,30.19,North,0,1.0,2.0,92,0.00,,,0.00,,2013-04-03 15:53:00,
2013-04-03 09:02:00,47.0,45.0,30.20,North,0,1.0,2.0,92,0.00,,,0.00,,2013-04-03 16:02:00,
2013-04-03 09:12:00,47.0,45.0,30.20,North,0,1.0,2.0,92,0.00,,,0.00,,2013-04-03 16:12:00,
2013-04-03 09:23:00,47.0,45.0,30.20,North,0,1.0,2.0,92,0.00,,,0.00,,2013-04-03 16:23:00,
2013-04-03 09:32:00,48.0,46.0,30.20,North,0,0.0,2.0,92,0.00,,,0.00,,2013-04-03 16:32:00,
2013-04-03 09:44:00,48.0,46.0,30.20,North,0,0.0,2.0,92,0.00,,,0.00,,2013-04-03 16:44:00,
2013-04-03 09:52:00,48.0,46.0,30.20,North,0,0.0,2.0,92,0.00,,,0.00,,2013-04-03 16:52:00,
2013-04-03 10:02:00,49.0,46.0,30.19,North,0,0.0,3.0,89,0.00,,,0.00,,2013-04-03 17:02:00,
2013-04-03 10:13:00,49.0,46.0,30.19,North,0,0.0,3.0,89,0.00,,,0.00,,2013-04-03 17:13:00,
2013-04-03 10:22:00,49.0,46.0,30.19,North,0,0.0,3.0,89,0.00,,,0.00,,2013-04-03 17:22:00,
2013-04-03 10:32:00,50.0,47.0,30.19,North,0,0.0,2.0,90,0.00,,,0.00,,2013-04-03 17:32:00,
2013-04-03 10:46:00,50.0,47.0,30.19,North,0,0.0,2.0,90,0.00,,,0.00,,2013-04-03 17:46:00,
2013-04-03 10:53:00,50.0,47.0,30.19,North,0,0.0,2.0,90,0.00,,,0.00,,2013-04-03 17:53:00,
2013-04-03 11:02:00,51.0,48.0,30.19,North,0,0.0,2.0,88,0.00,,,0.00,,2013-04-03 18:02:00,
2013-04-03 11:12:00,51.0,48.0,30.19,North,0,0.0,2.0,88,0.00,,,0.00,,2013-04-03 18:12:00,
2013-04-03 11:22:00,51.0,48.0,30.19,North,0,0.0,2.0,88,0.00,,,0.00,,2013-04-03 18:22:00,
2013-04-03 11:33:00,53.0,49.0,30.20,SW,229,4.0,5.0,86,0.00,,,0.00,,2013-04-03 18:33:00,
2013-04-03 11:43:00,53.0,49.0,30.20,SW,229,4.0,5.0,86,0.00,,,0.00,,2013-04-03 18:43:00,
2013-04-03 11:52:00,53.0,49.0,30.20,SW,229,4.0,5.0,86,0.00,,,0.00,,2013-04-03 18:52:00,
2013-04-03 12:02:00,56.0,51.0,30.19,SW,229,0.0,2.0,82,0.00,,,0.00,,2013-04-03 19:02:00,
2013-04-03 12:12:00,56.0,51.0,30.19,SW,229,0.0,2.0,82,0.00,,,0.00,,2013-04-03 19:12:00,
2013-04-03 12:22:00,56.0,51.0,30.19,SW,229,0.0,2.0,82,0.00,,,0.00,,2013-04-03 19:22:00,
2013-04-03 12:32:00,57.0,51.0,30.17,SW,229,1.0,3.0,80,0.00,,,0.00,,2013-04-03 19:32:00,
2013-04-03 12:42:00,57.0,51.0,30.17,SW,229,1.0,3.0,80,0.00,,,0.00,,2013-04-03 19:42:00,
2013-04-03 12:52:00,57.0,51.0,30.17,SW,229,1.0,3.0,80,0.00,,,0.00,,2013-04-03 19:52:00,
2013-04-03 13:02:00,59.0,52.0,30.17,SW,229,0.0,3.0,78,0.00,,,0.00,,2013-04-03 20:02:00,
2013-04-03 13:12:00,59.0,52.0,30.17,SW,229,0.0,3.0,78,0.00,,,0.00,,2013-04-03 20:12:00,
2013-04-03 13:22:00,59.0,52.0,30.17,SW,229,0.0,3.0,78,0.00,,,0.00,,2013-04-03 20:22:00,
2013-04-03 13:32:00,60.0,52.0,30.15,SW,234,2.0,4.0,76,0.00,,,0.00,,2013-04-03 20:32:00,
2013-04-03 13:42:00,60.0,52.0,30.15,SW,234,2.0,4.0,76,0.00,,,0.00,,2013-04-03 20:42:00,
2013-04-03 13:53:00,60.0,52.0,30.15,SW,234,2.0,4.0,76,0.00,,,0.00,,2013-04-03 20:53:00,
2013-04-03 14:02:00,61.0,53.0,30.14,West,260,1.0,4.0,74,0.00,,,0.00,,2013-04-03 21:02:00,
2013-04-03 14:12:00,61.0,53.0,30.14,West,260,1.0,4.0,74,0.00,,,0.00,,2013-04-03 21:12:00,
2013-04-03 14:22:00,61.0,53.0,30.14,West,260,1.0,4.0,74,0.00,,,0.00,,2013-04-03 21:22:00,
2013-04-03 14:32:00,61.0,52.0,30.13,West,267,3.0,4.0,73,0.00,,,0.00,,2013-04-03 21:32:00,
2013-04-03 14:42:00,61.0,52.0,30.13,West,267,3.0,4.0,73,0.00,,,0.00,,2013-04-03 21:42:00,
2013-04-03 14:52:00,61.0,52.0,30.13,West,267,3.0,4.0,73,0.00,,,0.00,,2013-04-03 21:52:00,
2013-04-03 15:02:00,62.0,53.0,30.12,WNW,297,2.0,4.0,73,0.00,,,0.00,,2013-04-03 22:02:00,
2013-04-03 15:12:00,62.0,53.0,30.12,WNW,297,2.0,4.0,73,0.00,,,0.00,,2013-04-03 22:12:00,
2013-04-03 15:22:00,62.0,53.0,30.12,WNW,297,2.0,4.0,73,0.00,,,0.00,,2013-04-03 22:22:00,
2013-04-03 15:32:00,63.0,54.0,30.12,NW,311,2.0,5.0,72,0.00,,,0.00,,2013-04-03 22:32:00,
2013-04-03 15:42:00,63.0,54.0,30.12,NW,311,2.0,5.0,72,0.00,,,0.00,,2013-04-03 22:42:00,
2013-04-03 15:52:00,63.0,54.0,30.12,NW,311,2.0,5.0,72,0.00,,,0.00,,2013-04-03 22:52:00,
2013-04-03 16:02:00,61.0,52.0,30.12,North,2,2.0,8.0,73,0.00,,,0.00,,2013-04-03 23:02:00,
2013-04-03 16:12:00,61.0,52.0,30.12,North,2,2.0,8.0,73,0.00,,,0.00,,2013-04-03 23:12:00,
2013-04-03 16:22:00,61.0,52.0,30.12,North,2,2.0,8.0,73,0.00,,,0.00,,2013-04-03 23:22:00,
2013-04-03 16:32:00,59.0,51.0,30.11,NNE,20,1.0,4.0,76,0.00,,,0.00,,2013-04-03 23:32:00,
2013-04-03 16:43:00,59.0,51.0,30.11,NNE,20,1.0,4.0,76,0.00,,,0.00,,2013-04-03 23:43:00,
2013-04-03 16:54:00,59.0,51.0,30.11,NNE,20,1.0,4.0,76,0.00,,,0.00,,2013-04-03 23:54:00,
2013-04-03 17:02:00,58.0,51.0,30.10,North,1,3.0,4.0,77,0.00,,,0.00,,2013-04-04 00:02:00,
2013-04-03 17:12:00,58.0,51.0,30.10,North,1,3.0,4.0,77,0.00,,,0.00,,2013-04-04 00:12:00,
2013-04-03 17:22:00,58.0,51.0,30.10,North,1,3.0,4.0,77,0.00,,,0.00,,2013-04-04 00:22:00,
2013-04-03 17:32:00,59.0,51.0,30.09,North,1,2.0,2.0,76,0.00,,,0.00,,2013-04-04 00:32:00,
2013-04-03 17:43:00,59.0,51.0,30.09,North,1,2.0,2.0,76,0.00,,,0.00,,2013-04-04 00:43:00,
2013-04-03 17:52:00,59.0,51.0,30.09,North,1,2.0,2.0,76,0.00,,,0.00,,2013-04-04 00:52:00,
2013-04-03 18:02:00,58.0,51.0,30.09,North,1,2.0,3.0,78,0.00,,,0.00,,2013-04-04 01:02:00,
2013-04-03 18:11:00,58.0,51.0,30.09,North,1,2.0,3.0,78,0.00,,,0.00,,2013-04-04 01:11:00,
2013-04-03 18:22:00,58.0,51.0,30.09,North,1,2.0,3.0,78,0.00,,,0.00,,2013-04-04 01:22:00,
2013-04-03 18:32:00,57.0,51.0,30.08,North,1,1.0,3.0,79,0.00,,,0.00,,2013-04-04 01:32:00,
2013-04-03 18:43:00,57.0,51.0,30.08,North,1,1.0,3.0,79,0.00,,,0.00,,2013-04-04 01:43:00,
2013-04-03 18:52:00,57.0,51.0,30.08,North,1,1.0,3.0,79,0.00,,,0.00,,2013-04-04 01:52:00,
2013-04-03 19:02:00,57.0,51.0,30.07,North,1,1.0,3.0,80,0.00,,,0.00,,2013-04-04 02:02:00,
2013-04-03 19:12:00,57.0,51.0,30.07,North,1,1.0,3.0,80,0.00,,,0.00,,2013-04-04 02:12:00,
2013-04-03 19:22:00,57.0,51.0,30.07,North,1,1.0,3.0,80,0.00,,,0.00,,2013-04-04 02:22:00,
2013-04-03 19:32:00,56.0,50.0,30.07,North,1,0.0,1.0,81,0.00,,,0.00,,2013-04-04 02:32:00,
2013-04-03 19:42:00,56.0,50.0,30.07,North,1,0.0,1.0,81,0.00,,,0.00,,2013-04-04 02:42:00,
2013-04-03 19:52:00,56.0,50.0,30.07,North,1,0.0,1.0,81,0.00,,,0.00,,2013-04-04 02:52:00,
2013-04-03 20:02:00,55.0,50.0,30.05,North,1,0.0,2.0,83,0.00,,,0.00,,2013-04-04 03:02:00,
2013-04-03 20:12:00,55.0,50.0,30.05,North,1,0.0,2.0,83,0.00,,,0.00,,2013-04-04 03:12:00,
2013-04-03 20:22:00,55.0,50.0,30.05,North,1,0.0,2.0,83,0.00,,,0.00,,2013-04-04 03:22:00,
2013-04-03 20:33:00,55.0,50.0,30.05,North,1,0.0,1.0,84,0.00,,,0.00,,2013-04-04 03:33:00,
2013-04-03 20:45:00,55.0,50.0,30.05,North,1,0.0,1.0,84,0.00,,,0.00,,2013-04-04 03:45:00,
2013-04-03 20:53:00,55.0,50.0,30.05,North,1,0.0,1.0,84,0.00,,,0.00,,2013-04-04 03:53:00,
2013-04-03 21:02:00,54.0,50.0,30.04,North,1,0.0,0.0,85,0.00,,,0.00,,2013-04-04 04:02:00,
2013-04-03 21:12:00,54.0,50.0,30.04,North,1,0.0,0.0,85,0.00,,,0.00,,2013-04-04 04:12:00,
2013-04-03 21:22:00,54.0,50.0,30.04,North,1,0.0,0.0,85,0.00,,,0.00,,2013-04-04 04:22:00,
2013-04-03 21:33:00,54.0,50.0,30.03,North,1,0.0,0.0,86,0.00,,,0.00,,2013-04-04 04:33:00,
2013-04-03 21:43:00,54.0,50.0,30.03,North,1,0.0,0.0,86,0.00,,,0.00,,2013-04-04 04:43:00,
2013-04-03 21:53:00,54.0,50.0,30.02,North,1,0.0,1.0,87,0.00,,,0.00,,2013-04-04 04:53:00,
2013-04-03 22:02:00,54.0,50.0,30.02,North,1,0.0,1.0,87,0.00,,,0.00,,2013-04-04 05:02:00,
2013-04-03 22:12:00,54.0,50.0,30.02,North,1,0.0,1.0,87,0.00,,,0.00,,2013-04-04 05:12:00,
2013-04-03 22:22:00,54.0,51.0,30.02,North,1,0.0,3.0,88,0.00,,,0.00,,2013-04-04 05:22:00,
2013-04-03 22:32:00,54.0,51.0,30.02,North,1,0.0,3.0,88,0.00,,,0.00,,2013-04-04 05:32:00,
2013-04-03 22:42:00,54.0,51.0,30.02,North,1,0.0,3.0,88,0.00,,,0.00,,2013-04-04 05:42:00,
2013-04-03 22:52:00,54.0,51.0,30.02,North,1,0.0,3.0,88,0.00,,,0.00,,2013-04-04 05:52:00,
2013-04-03 23:02:00,53.0,50.0,30.02,North,1,0.0,1.0,89,0.01,,,0.01,,2013-04-04 06:02:00,
2013-04-03 23:12:00,53.0,50.0,30.02,North,1,0.0,1.0,89,0.01,,,0.01,,2013-04-04 06:12:00,
2013-04-03 23:22:00,53.0,50.0,30.02,North,1,0.0,1.0,89,0.01,,,0.01,,2013-04-04 06:22:00,
2013-04-03 23:32:00,53.0,50.0,30.00,North,1,0.0,1.0,90,0.02,,,0.02,,2013-04-04 06:32:00,
2013-04-03 23:42:00,53.0,50.0,30.00,North,1,0.0,1.0,90,0.02,,,0.02,,2013-04-04 06:42:00,
2013-04-03 23:52:00,53.0,50.0,30.00,North,1,0.0,1.0,90,0.02,,,0.02,,2013-04-04 06:52:00,